Home > Weather > Bad Vilbel > Past weeks

Flag for Germany Past Weather in Bad Vilbel, Hesse, Germany — Yesterday and Last 2 Weeks

Now
66 °F

Broken clouds.


Feels Like: 66 °F
Forecast: 51 / 69 °F
Wind: 10 mph from West

Location: Frankfurt-M-Flughafen Airport

Current Time: Jun 26, 2016 at 1:58:27 PM

Latest Report: Jun 26, 2016 at 1:20 PM


Visibility: N/A

Pressure: 30.09 "Hg

Humidity: 52%

Dew Point: 48 °F

Location of Bad VilbelLocation

Past Weather in Bad Vilbel — Graph

°F

Bad Vilbel Temperature Yesterday

Maximum temperature yesterday: 75 °F (at 1:20 PM)
Minimum temperature yesterday: 59 °F (at 10:20 PM)
Average temperature yesterday: 67 °F

High & Low Weather Summary for the Past Weeks

 TemperatureHumidityPressure
High93 °F (Jun 23, 4:50 PM)100% (Jun 12, 9:50 PM)30.27 "Hg (Jun 12, 9:50 PM)
Low45 °F (Jun 20, 4:50 AM)30% (Jun 23, 4:50 PM)29.50 "Hg (Jun 14, 2:20 PM)
Average64 °F80%29.91 "Hg
* Reported Jun 11 12:20 PM — Jun 26 12:20 PM, Bad Vilbel, Weather by CustomWeather, © 2016

Note: Actual official high and low records may vary slightly from our data, if they occured in-between our weather recording intervals... More about our weather records

Advertising

Bad Vilbel Weather History for the Previous 24 Hours

Scroll right to see more
 ConditionsComfort  
Time TempWeatherWind HumidityBarometerVisibility
12:20 PM
Sun, Jun 26
68 °FScattered clouds.14 mph49%30.07 "HgN/A
11:50 AM66 °FScattered clouds.14 mph56%30.09 "HgN/A
11:20 AM68 °FScattered clouds.10 mph60%30.09 "HgN/A
10:50 AM64 °FScattered clouds.9 mph64%30.09 "HgN/A
10:20 AM64 °FScattered clouds.8 mph64%30.09 "HgN/A
9:50 AM64 °FScattered clouds.7 mph68%30.09 "HgN/A
9:20 AM63 °FScattered clouds.7 mph73%30.09 "HgN/A
8:50 AM63 °FScattered clouds.8 mph77%30.09 "HgN/A
8:20 AM61 °FScattered clouds.8 mph83%30.09 "HgN/A
7:50 AM59 °FPassing clouds.7 mph88%30.09 "HgN/A
7:20 AM57 °FPassing clouds.3 mph88%30.07 "HgN/A
6:50 AM55 °FPassing clouds.6 mph94%30.07 "HgN/A
6:20 AM54 °FPassing clouds.5 mph100%30.07 "HgN/A
5:50 AM54 °FPassing clouds.3 mph94%30.07 "HgN/A
5:20 AM54 °FPassing clouds.3 mph94%30.07 "HgN/A
4:50 AM54 °FPassing clouds.3 mph100%30.07 "HgN/A
4:20 AM54 °FPassing clouds.5 mph100%30.07 "HgN/A
3:50 AM54 °FFog.3 mph94%30.07 "HgN/A
3:20 AM54 °FFog.2 mph94%30.07 "HgN/A
2:50 AM54 °FClear.5 mph100%30.04 "Hg10 mi
2:20 AM55 °FClear.5 mph94%30.07 "Hg10 mi
1:50 AM54 °FPassing clouds.5 mph94%30.07 "HgN/A
1:20 AM55 °FPassing clouds.3 mph94%30.07 "HgN/A
12:50 AM55 °FPassing clouds.6 mph94%30.07 "HgN/A
12:20 AM57 °FPassing clouds.2 mph94%30.07 "HgN/A
11:50 PM
Sat, Jun 25
59 °FPassing clouds.7 mph88%30.07 "HgN/A
11:20 PM59 °FPassing clouds.7 mph88%30.07 "HgN/A
10:50 PM59 °FPassing clouds.9 mph88%30.04 "HgN/A
10:20 PM59 °FPassing clouds.8 mph88%30.04 "HgN/A
9:50 PM61 °FPassing clouds.9 mph83%30.04 "HgN/A
9:20 PM61 °FPartly sunny.9 mph83%30.01 "HgN/A
8:50 PM63 °FBroken clouds.13 mph77%30.01 "HgN/A
8:20 PM64 °FScattered clouds.10 mph73%30.01 "HgN/A
7:50 PM63 °FPartly sunny.16 mph77%29.98 "HgN/A
7:20 PM64 °FBroken clouds.15 mph73%29.98 "HgN/A
6:50 PM64 °FLight rain. Partly sunny.15 mph73%29.95 "HgN/A
6:20 PM64 °FLight rain. Partly sunny.12 mph73%29.95 "HgN/A
5:50 PM64 °FLight rain. Broken clouds.13 mph78%29.92 "HgN/A
5:20 PM64 °FBroken clouds.17 mph83%29.92 "HgN/A
4:50 PM64 °FBroken clouds.20 mph88%29.92 "HgN/A
4:20 PM64 °FSprinkles. Partly sunny.13 mph88%29.92 "HgN/A
3:50 PM66 °FThundershowers. Partly sunny.10 mph94%29.89 "HgN/A
3:20 PM68 °FThunderstorms. Partly sunny.8 mph94%29.86 "HgN/A
2:50 PM72 °FScattered showers. Broken clouds.8 mph83%29.86 "HgN/A
2:20 PM75 °FScattered showers. Partly sunny.7 mph69%29.86 "HgN/A
1:50 PM73 °FPartly sunny.6 mph74%29.89 "HgN/A
1:20 PM75 °FBroken clouds.7 mph69%29.89 "HgN/A
Weather by CustomWeather, © 2016

See weather overviewHow to use our weather pages